Overview Statistics Trail Chart Weather Telemetry Raw packets
 

This is the latest recevied weather packets stored in our database for station/object K5BOU. If no packets are shown the sender has not sent any weather packets the latest 10 day(s).

<< 85 86 87 88 89 90 91 >>
Time Temp. Humidity Pressure Rain* Wind** Luminosity Snow
1788039488 36.67° C 50% 1012.8 hPa 0 mm - 459 W/m² -
1788039184 36.11° C 51% 1012.7 hPa 0 mm - 478 W/m² -
1788038879 36.11° C 51% 1013 hPa 0 mm - 496 W/m² -
1788038569 36.11° C 53% 1012.9 hPa 0 mm - 515 W/m² -
1788038267 36.67° C 52% 1013.1 hPa 0 mm - 489 W/m² -
1788037963 36.11° C 50% 1013.1 hPa 0 mm - 548 W/m² -
1788037657 36.67° C 53% 1013 hPa 0 mm - 549 W/m² -
1788037352 36.67° C 53% 1013.2 hPa 0 mm - 551 W/m² -
1788037051 37.22° C 50% 1013.1 hPa 0 mm - 557 W/m² -
1788036747 36.67° C 51% 1013.1 hPa 0 mm - 570 W/m² -
1788036444 36.67° C 51% 1013.5 hPa 0 mm - 587 W/m² -
1788036139 36.67° C 54% 1013.6 hPa 0 mm - 590 W/m² -
1788035838 36.67° C 52% 1013.6 hPa 0 mm - 596 W/m² -
1788035534 36.11° C 52% 1013.6 hPa 0 mm - 596 W/m² -
1788035229 36.67° C 54% 1013.8 hPa 0 mm - 599 W/m² -
1788034925 36.11° C 54% 1013.6 hPa 0 mm - 628 W/m² -
1788034621 36.11° C 53% 1013.9 hPa 0 mm - 638 W/m² -
1788034317 35.56° C 55% 1013.9 hPa 0 mm - 640 W/m² -
1788034016 35.56° C 55% 1014 hPa 0 mm - 655 W/m² -
1788033711 36.11° C 55% 1014.2 hPa 0 mm - 666 W/m² -
1788033410 36.67° C 55% 1014.3 hPa 0 mm - 680 W/m² -
1788033105 36.11° C 55% 1014.2 hPa 0 mm - 679 W/m² -
1788032800 35.56° C 56% 1014.5 hPa 0 mm - 664 W/m² -
1788032498 36.11° C 56% 1014.4 hPa 0 mm - 683 W/m² -
1788032190 35.56° C 55% 1014.5 hPa 0 mm - 674 W/m² -

* Rain latest hour (hover to see other rain measurements)
** Current wind speed in m/s (hover to see current wind gust speed)